RH
32 47 56 46 35 30 30 30 28 22 17 23 69 86 88 82 74 71 70 65 54 54 49 43 41 51 57 61 64 67 69 78 77 89 89 92 84 86 85 94 83 86 88 84
43 53 39 31 27 27 30 31 28 21 18 24 85 93 86 81 73 68 68 65 57 52 50 46 42 50 54 58 64 68 68 77 76 80 86 84 82 82 80 89 91 85 84 89
46 36 28 31 32 30 32 34 28 24 20 59 73 90 92 83 73 70 70 65 72 52 49 47 45 50 49 55 69 68 71 74 77 79 86 90 85 85 86 93 91 88 83 84
40 28 25 29 31 29 42 22 18 19 23 35 58 90 86 87 86 87 74 69 73 63 46 47 46 52 50 52 65 69 70 75 74 78 84 87 86 88 81 85 84 89 84 85
28 24 28 28 24 24 26 19 19 21 25 26 26 25 71 76 83 92 74 64 64 57 47 45 44 51 50 50 59 72 73 75 72 69 68 78 85 81 82 80 83 88 90 84
16 13 16 20 18 20 16 18 20 25 27 33 26 22 77 80 83 83 79 76 68 54 50 43 41 47 53 53 56 74 75 75 77 72 81 78 82 81 87 81 84 89 94 89
15 14 14 14 21 20 18 26 35 36 32 33 30 24 21 60 50 70 74 69 58 50 49 51 43 45 53 57 60 73 75 74 74 79 85 81 78 80 81 86 74 75 86 96
20 18 13 12 21 26 26 24 34 37 40 35 26 28 19 34 45 51 56 52 54 52 61 54 42 45 48 54 58 69 75 74 71 72 78 89 78 75 86 86 73 70 71 75
32 26 17 13 13 20 28 32 23 30 54 34 31 25 21 25 27 58 54 56 61 58 63 59 40 40 52 53 57 63 74 71 69 69 68 78 90 80 82 85 87 81 72 75
33 28 22 15 14 17 36 23 30 38 42 46 36 33 31 38 46 51 59 58 51 65 66 64 47 40 52 52 53 57 64 69 71 67 65 64 74 88 78 81 81 83 80 78
34 32 26 18 22 26 21 26 30 33 44 47 44 34 36 42 40 43 55 52 51 63 71 76 60 57 60 63 54 57 60 63 73 72 67 64 64 76 92 78 76 79 79 79
38 40 44 28 23 18 19 30 30 37 35 45 50 40 30 31 32 28 35 51 64 67 70 68 67 73 59 59 53 56 58 62 62 70 70 69 65 68 79 87 71 74 81 89
36 49 51 30 31 32 33 29 33 32 28 24 25 25 25 27 31 27 27 58 60 77 73 82 75 74 57 58 50 51 56 61 59 64 68 71 67 66 66 71 91 76 70 85
38 49 51 55 49 37 36 30 29 35 35 32 28 24 27 22 21 20 27 37 81 91 85 88 68 63 64 64 66 57 51 62 60 61 67 70 72 66 62 63 69 93 74 66
48 54 52 48 34 33 33 32 30 39 40 37 27 25 24 26 22 18 19 24 55 80 80 62 58 39 55 71 73 69 64 54 62 65 67 67 69 71 67 61 65 70 87 70
66 73 72 61 42 42 44 39 35 30 31 33 30 26 24 28 24 24 22 22 34 42 48 32 49 58 70 60 47 75 80 73 62 67 68 69 68 72 74 71 64 69 66 79
70 82 86 86 58 53 54 43 38 36 36 37 42 35 30 34 31 27 47 45 46 46 46 55 63 83 88 85 79 70 82 86 81 67 68 70 74 74 74 74 72 68 67 59
69 86 94 95 80 90 48 41 35 36 34 38 39 42 51 54 50 49 48 47 43 40 50 49 48 75 82 88 94 93 92 92 87 90 70 70 74 76 75 73 75 72 71 65
75 82 92 94 95 65 48 54 62 61 50 68 71 65 56 56 47 42 50 48 47 45 44 47 51 72 84 81 86 96 91 92 91 88 88 74 71 76 76 76 74 73 75 75
74 87 93 98 98 96 88 65 56 61 61 78 76 79 78 68 76 63 58 50 53 48 44 42 54 69 72 94 94 91 90 91 86 87 78 79 72 70 73 74 72 71 68 71
92 94 95 96 99 92 69 66 66 79 75 79 79 82 83 88 78 66 60 55 52 51 44 46 58 83 81 84 94 94 91 91 87 88 84 83 70 65 68 70 71 70 71 68
93 97 97 97 97 98 68 67 83 89 85 76 76 78 86 82 77 72 65 62 57 55 49 64 81 94 86 88 96 96 97 88 78 76 83 77 68 65 61 67 71 70 71 73
95 94 96 98 94 80 87 92 88 86 85 79 77 81 80 79 81 74 75 71 67 65 65 75 88 94 85 96 96 94 90 95 96 96 90 82 81 63 59 65 69 72 70 74
91 93 99 98 80 84 80 82 80 80 85 76 77 82 78 89 86 80 76 77 80 78 79 91 94 88 92 88 84 96 87 88 94 97 96 95 91 86 86 60 90 69 70 72
91 95 90 94 90 89 87 84 85 86 83 83 78 81 83 92 92 89 89 84 83 86 82 96 94 96 93 90 87 93 82 85 90 91 96 97 96 94 92 83 83 74 79 74
96 94 99 98 87 94 91 88 82 89 86 86 89 88 84 88 94 92 91 93 94 90 89 98 96 95 94 92 88 88 92 85 92 96 94 95 92 90 85 89 97 100 96 98
Wind_Speed
5 4 6 9 6 6 3 4 9 16 13 6 10 15 20 16 13 18 16 16 19 15 10 12 12 18 19 16 14 14 13 10 7 4 3 2 4 2 2 3 6 6 5 5
4 5 8 5 6 7 5 6 15 15 8 6 14 18 18 20 16 16 16 16 18 17 16 13 15 20 19 18 15 14 14 13 8 5 3 3 3 2 3 3 4 6 6 6
7 8 8 9 8 8 8 7 13 12 3 8 9 6 13 9 10 11 10 11 5 16 17 15 14 21 18 18 16 15 14 14 10 7 4 2 3 3 2 1 2 4 6 6
6 14 10 9 11 6 7 7 14 11 2 4 5 3 6 11 9 9 10 15 15 15 18 16 18 21 22 17 15 16 14 13 11 9 6 5 4 3 4 4 3 4 6 6
7 5 8 11 13 8 14 13 11 2 1 4 2 4 5 15 15 17 21 20 19 21 20 21 20 21 21 19 16 15 14 12 11 10 9 7 4 4 3 3 5 5 5 6
8 6 3 8 12 10 12 6 5 5 4 3 5 7 5 16 24 22 18 21 21 23 19 17 18 20 18 17 16 14 16 14 12 10 7 10 8 6 4 5 5 4 4 4
5 5 4 4 3 5 5 7 3 5 3 6 3 4 9 24 19 27 29 28 25 17 17 11 17 22 20 20 19 15 17 16 14 13 10 9 9 7 7 7 8 7 4 3
3 6 4 7 3 6 3 10 8 7 2 4 3 4 7 15 20 26 33 25 14 14 11 13 20 19 23 23 20 19 18 17 16 15 12 9 9 6 5 6 7 8 8 7
2 5 6 3 4 3 4 2 7 7 1 5 4 8 5 12 5 14 20 16 19 17 15 16 24 21 21 22 23 22 20 18 17 17 13 10 8 8 7 8 5 5 8 5
2 4 4 7 8 8 0 3 4 4 5 4 5 5 5 12 15 6 13 20 18 17 16 13 22 23 17 21 21 20 20 20 19 18 15 13 11 8 7 7 7 6 5 6
6 5 9 5 6 3 9 8 5 6 5 6 3 5 2 9 14 15 17 21 16 17 16 11 15 14 12 15 18 19 18 20 17 17 16 15 13 9 6 7 8 8 5 7
5 3 4 7 5 4 5 8 8 5 2 3 4 5 2 11 16 18 16 4 9 8 4 6 13 12 13 15 19 20 19 20 20 18 17 16 14 13 11 9 9 8 7 6
5 4 6 15 8 9 7 8 7 4 4 4 6 5 9 13 16 15 19 9 12 8 6 2 5 9 9 8 13 19 20 21 19 18 18 16 16 15 16 14 7 7 8 7
6 3 5 5 4 4 7 14 9 5 4 4 2 4 9 11 12 14 18 18 8 7 6 5 8 4 2 3 5 8 18 19 19 19 19 18 18 17 16 16 13 7 8 10
5 2 4 2 4 5 8 14 11 5 4 3 6 6 3 3 7 9 10 10 10 6 5 6 8 12 4 7 6 8 8 17 18 19 19 19 17 17 16 17 16 13 9 11
5 3 5 7 8 9 8 10 12 9 5 5 7 6 5 3 6 8 8 11 14 15 14 10 16 16 19 11 12 9 6 8 17 19 20 18 17 16 16 16 17 14 15 12
0 3 4 3 7 8 8 4 5 8 3 0 4 6 4 8 8 7 10 13 12 11 12 12 12 12 10 10 10 4 8 3 2 17 18 18 18 17 17 15 16 17 16 16
5 5 4 4 5 3 7 7 9 11 3 6 2 7 9 6 3 11 10 11 12 12 13 14 12 10 4 5 1 2 2 5 4 2 14 16 17 18 16 16 16 16 14 16
4 5 3 4 4 7 13 8 8 7 6 12 10 13 9 12 7 6 11 11 13 12 10 13 11 10 13 7 6 6 6 4 4 5 3 6 15 16 17 18 18 16 14 14
7 5 5 2 3 6 1 14 15 12 4 13 13 15 14 12 4 3 13 11 9 15 16 13 15 12 8 7 12 10 7 6 9 8 6 4 6 15 18 18 18 16 15 16
5 4 3 3 5 4 8 15 13 4 5 16 12 14 17 7 5 13 13 15 7 8 15 16 12 9 4 4 7 10 12 12 10 4 1 3 9 13 18 17 16 16 16 15
1 2 1 3 4 6 10 6 3 9 10 14 16 14 18 18 16 15 13 13 15 15 13 13 6 6 5 5 2 7 13 15 14 11 8 9 15 14 15 18 16 17 15 16
3 5 4 6 6 5 2 5 8 8 13 14 18 15 18 21 21 20 18 14 12 14 13 9 7 4 7 3 3 5 9 10 8 10 13 19 16 19 20 18 18 14 16 14
3 3 3 1 5 3 11 8 6 12 14 16 16 17 17 21 19 20 18 17 13 11 12 7 7 4 6 2 3 5 5 9 16 17 16 16 14 14 15 14 15 15 15 15
4 3 5 6 9 7 7 7 9 11 14 14 17 15 17 19 14 15 15 18 15 11 15 7 7 5 5 3 3 4 3 2 9 11 15 15 9 13 13 14 13 15 17 17
7 7 6 7 7 6 9 7 9 10 15 12 14 14 15 15 12 12 12 14 15 13 14 6 6 5 3 3 6 3 4 2 7 9 10 10 10 9 11 11 6 8 3 12
Wind_Direction
193 127 220 243 187 193 214 286 279 286 281 215 185 158 180 173 187 172 184 185 184 197 207 204 158 166 166 165 161 166 160 163 159 122 142 200 163 164 140 214 164 168 160 141
331 217 226 245 225 240 258 254 274 282 272 205 163 177 175 180 187 183 182 184 197 193 210 201 162 169 171 170 170 165 171 165 167 155 157 160 160 164 183 163 180 175 173 155
188 243 231 240 268 237 246 223 257 251 335 49 113 145 182 190 209 187 182 186 234 211 206 208 166 171 178 168 168 171 170 170 166 166 125 81 56 38 50 132 189 197 179 171
211 235 226 225 243 219 256 222 250 269 73 185 163 206 170 163 183 192 193 193 209 227 220 204 171 176 175 176 169 171 168 171 170 167 150 153 169 172 213 187 186 178 182 204
254 251 217 227 236 205 247 248 241 259 64 122 293 103 293 157 194 202 208 221 197 209 208 193 177 177 177 172 173 171 168 172 173 177 173 176 182 204 191 189 192 181 188 201
229 249 207 233 242 226 249 255 339 54 90 35 210 145 183 176 201 199 213 226 209 202 195 196 172 171 175 178 171 171 170 177 175 181 179 180 189 207 190 182 192 197 190 191
328 275 270 216 315 332 174 68 352 338 5 206 147 44 225 211 191 192 199 211 212 195 190 198 178 174 177 177 178 176 175 180 178 184 186 186 200 195 201 187 194 189 187 186
206 321 8 348 116 211 169 153 161 193 187 264 41 206 258 205 202 190 199 196 192 187 189 214 187 177 179 180 180 179 180 182 184 184 197 188 196 209 187 197 203 200 193 195
61 271 316 80 310 178 265 134 191 126 100 66 279 309 341 44 277 204 192 185 191 184 183 204 192 186 179 181 183 183 181 185 186 190 193 206 197 200 190 210 206 203 196 183
312 325 344 314 358 20 292 176 42 10 136 177 306 342 274 4 339 242 200 199 200 181 184 189 186 190 178 185 185 185 182 185 188 190 192 200 215 207 201 190 211 210 217 195
20 70 297 22 59 17 352 350 47 112 131 141 122 288 24 49 21 5 216 209 198 184 178 163 174 179 163 174 183 184 187 190 188 192 192 196 207 220 203 201 206 206 206 202
322 114 316 253 303 308 108 44 26 98 235 51 115 248 323 59 57 31 9 226 128 148 196 191 166 157 167 180 184 189 188 192 193 188 194 197 198 205 220 220 216 205 196 207
323 12 355 339 12 21 24 19 358 272 11 158 123 268 349 47 47 39 22 7 147 129 169 351 325 58 20 301 210 190 191 194 193 191 191 196 203 203 211 222 220 215 208 202
48 63 134 177 189 265 324 334 0 70 54 316 208 359 27 29 34 32 43 29 34 60 54 11 335 343 117 284 293 267 204 193 192 193 194 197 198 203 208 213 219 211 216 212
68 30 7 249 292 326 316 316 329 345 323 296 298 334 328 43 18 20 53 36 53 8 62 353 317 314 285 234 223 240 275 194 194 194 197 202 201 198 202 207 214 213 210 222
8 329 19 345 360 2 328 316 311 298 301 293 322 300 30 72 80 33 30 63 43 28 356 2 345 333 338 301 236 205 233 255 192 196 201 199 200 202 202 202 206 210 216 219
25 103 54 305 353 354 317 276 302 309 312 251 317 262 330 31 50 39 48 35 40 13 6 350 340 337 347 340 8 150 178 151 296 202 203 200 198 202 203 199 203 209 213 216
170 124 115 207 55 264 240 309 296 285 25 25 322 353 57 357 326 99 53 31 16 1 340 331 336 309 335 16 20 5 116 153 156 25 206 202 203 198 202 203 205 209 209 213
23 121 117 166 198 290 304 23 338 333 316 27 3 342 22 347 309 166 42 21 347 335 327 312 311 314 308 10 295 214 248 181 217 182 136 233 205 205 201 205 205 206 208 211
16 67 123 132 192 240 17 329 314 302 237 9 356 328 338 351 354 260 345 346 345 323 322 320 319 309 307 310 306 308 301 242 250 224 163 183 270 215 211 203 206 205 212 216
349 15 32 251 250 270 352 328 319 215 307 333 338 318 314 309 247 293 307 304 302 296 305 309 292 278 287 315 265 292 291 280 240 225 256 249 251 248 222 210 207 206 207 212
355 72 9 330 285 274 9 345 354 318 328 314 313 309 306 305 299 289 285 288 300 306 305 305 277 253 259 262 237 268 273 283 304 299 264 271 258 244 223 216 209 210 206 211
215 177 195 200 237 276 64 242 285 297 310 306 306 304 297 304 296 294 291 285 278 284 291 289 281 247 270 194 165 283 294 316 290 315 286 259 265 252 216 208 210 206 205 208
200 157 218 336 257 266 314 306 308 316 304 303 299 291 303 296 279 278 284 286 283 275 273 239 252 250 235 217 261 216 269 340 329 313 299 280 253 228 218 208 206 202 201 207
196 163 228 242 274 286 258 303 298 311 306 293 305 300 305 314 271 276 279 280 280 272 279 225 230 227 260 290 291 169 291 221 255 262 279 282 231 208 216 209 207 208 209 204
177 196 194 224 210 189 255 254 296 313 319 310 307 303 306 322 326 315 310 297 266 251 255 215 231 232 219 226 302 349 274 316 283 283 280 277 272 224 210 207 200 34 339 223